Location: Domont
(49.0278°N, 2.3264°E)
Time: 11:36:01
(UTC+00:00)

NOAA 18 - Pass Details

Date: 26 June 2022
Orbit: 839 x 860 km, 98.9° (Epoch: 13 August)

Event Time Altitude Azimuth Distance (km) Brightness Sun altitude
Exits shadow 21:57:37 11° 190° (S) 2,390 7.1 -13.1°
Maximum altitude 22:02:38 45° 261° (W) 1,154 6.0 -13.5°
Drops below altitude 10° 22:07:56 10° 334° (NNW) 2,501 9.1 -13.9°
Sets 22:10:27 0° 341° (NNW) 3,444 10.3 -14.1°
